Location: Unspecified
(0.0000°N, 0.0000°E)
Time: 21:17:11
(UTC+00:00)

DMSP 5D-2 F13 DEB - Pass Details

Date: 06 March 2026
Orbit: 780 x 797 km, 98.7° (Epoch: 11 April)

Event Time Altitude Azimuth Distance (km) Brightness Sun altitude
Rises 20:08:28 0° 198° (SSW) 3,263 ? -29.2°
Reaches altitude 10° 20:11:33 10° 218° (SW) 2,334 ? -29.9°
Maximum altitude 20:14:48 17° 257° (WSW) 1,892 ? -30.8°
Drops below altitude 10° 20:18:03 10° 297° (WNW) 2,333 ? -31.6°
Sets 20:21:09 0° 316° (NW) 3,261 ? -32.3°
